Weather in Mazeikiai

Lithuania     56°18′12″N   22°20′16″E
temp.,
°C
wind,
m/s
gust,
m/s
humid.,
%
clouds,
%
prec.,
mm/h
press.,
hPa
HPBL,
m
27 february, sat
sat2723:00+2w48910 0.0 1016211
02:00+3wnw5129035 0.0 1018444
05:00+1nw514890 0.0 1019495
08:00+1nw513900 0.0 1022503
11:00+4nw611740 0.0 1024812
14:00+6nnw711620 0.0 10271059
17:00+4nw510690 0.0 1027580
20:000wnw48910 0.0 1028231
28 february, sun
sun2823:000wnw489365 0.0 1028240
02:00+1w379181 0.0 1028182
05:00+3w498293 0.0 1027270
08:00+2w5118596 0.0 1026288
11:00+6nw51172100 0.0 1025689
14:00+5nw5117688 0.0 1026711
17:00+5nw498184 0.0 1025538
20:00+3nw4109052 0.0 1028274
1 march, mon
mon123:00+2nw38930 0.0 1028216
02:00+1wnw36930 0.0 1030129
05:00+1wnw35930 0.0 102998
08:00+1w48910 0.0 1030158
11:00+6w510740 0.0 1029368
14:00+10wsw713624 0.0 1028601
17:00+6w7137639 0.0 1026568
20:00+2w499138 0.0 1027264
2 march, tue
tue223:00+1wnw369344 0.0 1027146
02:00+1wnw339022 0.0 102864
05:00+1w348820 0.0 102770
08:00+1w368810 0.0 1028126
11:00+6wsw46690 0.0 1028263
14:00+9wnw46630 0.0 1028522
17:00+7wnw36720 0.0 1027267
20:00+3wnw34860 0.0 102892
3 march, wed
wed323:00+2wnw23880 0.0 102929
02:00+1wnw22881 0.0 102922
05:00+1wsw33908 0.0 102845
08:000wsw359510 0.0 1028120
11:00+3wsw348422 0.0 1027252
14:00+6sw347214 0.0 1026436
17:00+3sw468616 0.0 1024464
20:00+1sw389543 0.0 1022268